EW2093 Weather Reports


time (UTC)temp
F
wind
direction
speed
knots
gust
knots
rain 1hr
in
rain 24hr
in
rain mn
in
humidity
%
barometer
mb
20260507065536 42 59 0.9 1.7 0.00 0.04 0.00 96 1013.7
20260507065017 42 59 0.0 2.6 0.00 0.04 0.00 96 1013.7
20260507064518 42 60 0.0 2.6 0.00 0.04 0.00 96 1013.8
20260507064019 42 60 0.9 1.7 0.00 0.04 0.00 96 1013.8
20260507063521 42 60 0.0 1.7 0.00 0.04 0.00 96 1013.8
20260507063021 42 60 0.0 0.9 0.00 0.04 0.00 96 1013.8
20260507062524 42 60 0.0 0.9 0.00 0.04 0.00 96 1013.8
20260507062024 42 60 0.0 1.7 0.00 0.04 0.00 96 1013.9
20260507061526 42 60 0.0 1.7 0.00 0.04 0.00 96 1013.8
20260507061027 42 60 0.0 0.9 0.00 0.04 0.00 96 1013.9
20260507060528 42 60 0.0 1.7 0.00 0.04 0.00 95 1013.8
20260507060027 42 60 0.0 1.7 0.00 0.04 0.00 95 1013.8
20260507055525 42 60 0.0 1.7 0.00 0.04 0.00 95 1013.8
20260507055027 42 60 0.9 1.7 0.00 0.04 0.00 95 1013.8
20260507054531 42 62 0.9 2.6 0.00 0.04 0.00 95 1013.8
20260507054031 42 62 0.9 2.6 0.00 0.04 0.00 95 1013.8
20260507053532 42 64 0.9 2.6 0.00 0.04 0.00 95 1013.8
20260507053032 42 64 0.9 2.6 0.00 0.04 0.00 95 1013.8
20260507052534 42 57 0.0 1.7 0.00 0.04 0.00 95 1013.9
20260507052036 42 57 0.9 1.7 0.00 0.04 0.00 95 1013.9
20260507051538 42 57 0.9 2.6 0.00 0.04 0.00 95 1013.8
20260507051017 42 57 0.0 2.6 0.00 0.04 0.00 95 1013.8
20260507050519 42 52 0.0 1.7 0.00 0.04 0.00 95 1013.8
20260507050020 42 52 0.0 2.6 0.00 0.04 0.00 95 1013.7
20260507045521 42 51 0.9 2.6 0.00 0.04 0.00 95 1013.7
20260507045019 42 152 0.9 1.7 0.00 0.04 0.00 95 1013.8
20260507044520 42 157 0.0 1.7 0.00 0.04 0.00 95 1013.9
20260507044043 42 162 0.0 1.7 0.00 0.04 0.00 95 1013.9
20260507043525 42 178 0.0 0.0 0.00 0.04 0.00 95 1014.0
20260507043029 42 179 0.0 0.0 0.00 0.04 0.00 95 1014.0
20260507042530 42 179 0.0 0.0 0.00 0.04 0.00 95 1013.9
20260507042032 42 180 0.0 0.0 0.00 0.04 0.00 95 1013.9
20260507041533 42 180 0.0 0.0 0.00 0.04 0.00 95 1014.0
20260507041034 42 180 0.0 0.0 0.00 0.04 0.00 95 1014.0
20260507040529 42 180 0.0 0.0 0.00 0.04 0.00 95 1014.0
20260507040029 42 180 0.0 0.0 0.00 0.04 0.00 95 1014.0
20260507035552 42 180 0.0 0.0 0.00 0.04 0.00 95 1014.0
20260507035032 42 180 0.0 0.9 0.00 0.04 0.00 95 1014.0
20260507034533 42 180 0.0 0.9 0.00 0.04 0.00 95 1014.0
20260507034034 42 182 0.0 0.9 0.00 0.04 0.00 95 1014.1
20260507033537 42 182 0.0 0.0 0.00 0.04 0.00 95 1014.1
20260507033018 42 182 0.0 0.0 0.00 0.04 0.00 95 1014.2
20260507032521 42 182 0.0 0.0 0.00 0.04 0.00 95 1014.2
20260507032024 41 182 0.0 0.0 0.00 0.04 0.00 95 1014.2
20260507031526 41 182 0.0 0.0 0.00 0.04 0.00 95 1014.1
20260507031026 41 182 0.0 0.9 0.00 0.04 0.00 95 1014.2
20260507030526 41 182 0.0 1.7 0.00 0.04 0.00 95 1014.1
20260507030026 41 182 0.9 1.7 0.00 0.04 0.00 95 1014.2
20260507025526 41 93 0.0 0.0 0.00 0.04 0.00 95 1014.1
20260507025027 41 93 0.0 0.0 0.00 0.04 0.00 95 1014.0
20260507024527 40 93 0.0 0.0 0.00 0.04 0.00 95 1014.1
20260507024030 40 93 0.0 0.9 0.00 0.04 0.00 95 1014.1
20260507023532 40 93 0.0 0.9 0.00 0.04 0.00 95 1014.1
20260507023032 40 93 0.0 0.9 0.00 0.04 0.00 95 1014.2
20260507022536 40 93 0.0 0.9 0.00 0.04 0.00 95 1014.2
20260507022034 39 93 0.0 0.9 0.00 0.04 0.00 95 1014.2
20260507021535 39 93 0.0 0.0 0.00 0.04 0.00 95 1014.2
20260507021018 39 93 0.0 0.0 0.00 0.04 0.00 95 1014.3
20260507020521 39 93 0.0 0.0 0.00 0.04 0.00 95 1014.3
20260507020022 38 93 0.0 0.0 0.00 0.04 0.00 95 1014.4
20260507015525 38 93 0.0 0.0 0.00 0.04 0.00 94 1014.4
20260507015024 38 94 0.0 0.0 0.00 0.04 0.00 94 1014.5
20260507014531 38 94 0.0 0.0 0.00 0.04 0.00 94 1014.4
20260507014032 38 94 0.0 0.0 0.00 0.04 0.00 94 1014.4
20260507013533 38 94 0.0 0.9 0.00 0.04 0.00 94 1014.4
20260507013033 38 94 0.0 0.9 0.00 0.04 0.00 94 1014.4
20260507012533 38 94 0.0 0.9 0.00 0.04 0.00 94 1014.4
20260507012032 38 93 0.0 0.0 0.00 0.04 0.00 94 1014.5
20260507011534 38 93 0.0 0.0 0.00 0.04 0.00 94 1014.5
20260507011034 39 93 0.0 0.9 0.00 0.04 0.00 94 1014.6
20260507010535 39 93 0.0 1.7 0.00 0.04 0.00 94 1014.5
20260507010057 39 93 0.0 0.0 0.00 0.04 0.00 94 1014.5
20260507005536 39 93 0.0 0.0 0.00 0.04 0.00 94 1014.6
20260507005018 39 93 0.0 0.0 0.00 0.04 0.00 94 1014.7
20260507004541 39 93 0.0 0.0 0.00 0.04 0.00 94 1014.7
20260507004021 39 93 0.0 0.9 0.00 0.04 0.00 94 1014.7
20260507003549 39 93 0.0 0.9 0.00 0.04 0.00 94 1014.8
20260507003028 39 93 0.0 1.7 0.00 0.04 0.00 94 1014.8
20260507002529 39 94 0.9 1.7 0.00 0.04 0.00 94 1014.9
20260507002030 40 94 0.0 0.0 0.00 0.04 0.00 94 1014.8
20260507001529 40 94 0.0 0.0 0.00 0.04 0.00 94 1014.9
20260507001030 40 94 0.0 0.9 0.00 0.04 0.00 94 1014.9
20260507000531 40 94 0.0 0.9 0.00 0.04 0.00 94 1014.9
20260507000032 40 94 0.0 0.0 0.00 0.04 0.00 94 1014.9
20260506235535 40 94 0.0 0.0 0.00 0.04 0.00 94 1014.9
20260506235036 40 94 0.0 0.0 0.00 0.04 0.00 94 1014.9
20260506234518 40 94 0.0 0.0 0.00 0.04 0.00 94 1014.9
20260506234020 40 94 0.0 0.0 0.00 0.04 0.00 94 1014.9
20260506233521 41 94 0.0 0.0 0.00 0.04 0.00 93 1015.0
20260506233018 41 94 0.0 0.0 0.00 0.04 0.00 93 1015.0
20260506232541 41 94 0.0 0.0 0.00 0.04 0.00 93 1015.0
20260506232020 41 94 0.0 0.0 0.00 0.04 0.00 93 1015.0
20260506231521 41 94 0.0 0.9 0.00 0.04 0.00 93 1015.0
20260506231024 41 94 0.0 0.9 0.00 0.04 0.00 93 1015.1
20260506230526 41 94 0.0 0.0 0.00 0.04 0.00 93 1015.0
20260506230019 41 94 0.0 0.9 0.00 0.04 0.00 93 1015.0
20260506225520 41 94 0.0 1.7 0.00 0.04 0.00 93 1015.1
20260506225041 41 94 0.9 1.7 0.00 0.04 0.00 93 1015.1
20260506224522 42 94 0.0 0.9 0.00 0.04 0.00 92 1015.1
20260506224025 42 94 0.0 1.7 0.00 0.04 0.00 92 1015.1
20260506223527 42 94 0.9 1.7 0.00 0.04 0.00 92 1015.1
20260506223030 43 94 0.0 0.0 0.00 0.04 0.00 93 1015.0
20260506222601 43 94 0.0 0.0 0.00 0.04 0.00 93 1015.0
20260506222040 43 94 0.0 0.0 0.00 0.04 0.00 93 1015.1
20260506221532 43 94 0.0 2.6 0.00 0.04 0.00 93 1015.2
20260506221042 43 94 0.9 2.6 0.00 0.04 0.00 93 1015.2
20260506220534 43 95 0.9 1.7 0.00 0.04 0.00 92 1015.3
20260506220034 43 223 0.9 1.7 0.00 0.04 0.00 92 1015.3
20260506215536 43 223 0.9 1.7 0.00 0.04 0.01 92 1015.4
20260506215103 43 224 0.0 0.0 0.00 0.04 0.01 92 1015.4
20260506214524 44 224 0.0 0.9 0.00 0.04 0.01 91 1015.3
20260506214045 44 224 0.0 1.7 0.00 0.04 0.01 92 1015.4
20260506213526 44 224 0.0 1.7 0.00 0.04 0.01 91 1015.3
20260506213027 44 224 0.0 1.7 0.00 0.04 0.01 91 1015.3
20260506212520 44 224 0.0 1.7 0.00 0.04 0.01 91 1015.3
20260506212047 45 224 0.0 0.0 0.00 0.04 0.01 91 1015.3
20260506211548 45 224 0.0 0.0 0.00 0.04 0.01 91 1015.3
20260506211029 45 224 0.0 0.0 0.00 0.04 0.01 91 1015.2
20260506210530 45 224 0.0 0.9 0.00 0.04 0.01 91 1015.2
20260506210032 45 224 0.0 1.7 0.00 0.04 0.01 91 1015.3
20260506205533 45 224 0.9 1.7 0.00 0.04 0.01 90 1015.4
20260506205034 46 225 0.0 0.0 0.00 0.04 0.01 91 1015.3
20260506204534 46 225 0.0 1.7 0.00 0.04 0.01 91 1015.3
20260506204035 46 225 0.9 1.7 0.00 0.04 0.01 90 1015.2
20260506203535 46 225 1.7 1.7 0.00 0.04 0.01 90 1015.2
20260506203035 46 225 0.0 1.7 0.00 0.04 0.01 89 1015.1
20260506202555 47 225 0.9 1.7 0.00 0.04 0.01 89 1015.2
20260506202035 47 226 0.0 1.7 0.00 0.04 0.01 89 1015.1
20260506201517 48 226 0.0 2.6 0.00 0.04 0.01 88 1015.1
20260506201039 48 226 1.7 2.6 0.00 0.04 0.01 89 1015.1
20260506200518 48 321 0.0 1.7 0.00 0.04 0.01 88 1015.0
20260506200020 48 321 0.0 2.6 0.00 0.04 0.01 88 1014.9
20260506195521 49 321 0.9 2.6 0.00 0.04 0.01 88 1014.9
20260506195023 49 316 0.9 1.7 0.00 0.04 0.01 87 1014.8
20260506194526 49 316 0.9 1.7 0.00 0.04 0.01 87 1014.8
20260506194055 49 316 0.9 1.7 0.00 0.04 0.01 86 1014.7
20260506193535 49 316 0.9 1.7 0.00 0.04 0.01 86 1014.8
20260506193035 50 316 0.9 1.7 0.00 0.04 0.01 85 1014.8
20260506192556 50 316 0.9 1.7 0.00 0.04 0.01 84 1014.7
20260506192036 50 316 0.9 2.6 0.00 0.04 0.01 83 1014.6
20260506191538 51 316 1.7 2.6 0.00 0.04 0.01 83 1014.5
20260506191018 51 337 0.9 2.6 0.00 0.04 0.01 82 1014.5
20260506190539 52 338 0.9 2.6 0.00 0.04 0.01 81 1014.5
20260506190042 52 303 0.9 2.6 0.00 0.04 0.01 81 1014.4
20260506185544 53 300 1.7 2.6 0.00 0.04 0.01 80 1014.4
20260506185026 53 301 0.9 4.3 0.00 0.04 0.01 80 1014.4
20260506184528 53 306 1.7 4.3 0.00 0.04 0.01 79 1014.4
20260506184027 54 322 1.7 3.5 0.00 0.04 0.01 79 1014.4
20260506183528 54 356 1.7 3.5 0.00 0.04 0.01 79 1014.4
20260506183048 54 303 0.9 2.6 0.00 0.04 0.01 79 1014.4
20260506182530 54 303 0.9 4.3 0.00 0.04 0.01 78 1014.4
20260506182030 54 307 2.6 4.3 0.00 0.04 0.01 78 1014.3
20260506181531 54 303 2.6 3.5 0.00 0.04 0.01 78 1014.3
20260506181032 54 313 1.7 3.5 0.00 0.04 0.01 79 1014.3
20260506180536 54 311 2.6 5.2 0.00 0.04 0.01 79 1014.3
20260506180036 54 2 1.7 5.2 0.00 0.04 0.01 79 1014.3
20260506175520 54 2 1.7 4.3 0.00 0.04 0.01 79 1014.3
20260506175020 54 12 1.7 4.3 0.00 0.04 0.01 79 1014.4
20260506174528 54 339 2.6 6.1 0.00 0.04 0.01 78 1014.4
20260506174030 54 310 2.6 6.1 0.00 0.04 0.01 79 1014.4
20260506173531 54 83 1.7 6.1 0.00 0.04 0.01 80 1014.4
20260506173032 54 41 2.6 6.1 0.00 0.04 0.01 80 1014.4
20260506172532 54 301 2.6 8.7 0.00 0.04 0.01 81 1014.4
20260506172032 54 29 3.5 8.7 0.00 0.04 0.01 80 1014.4
20260506171531 54 32 4.3 7.8 0.00 0.04 0.01 80 1014.3
20260506171032 54 25 2.6 10.4 0.00 0.04 0.01 80 1014.4
20260506170532 54 55 1.7 10.4 0.00 0.04 0.01 79 1014.4
20260506170035 54 24 3.5 9.6 0.00 0.04 0.01 79 1014.4
20260506165533 54 348 4.3 9.6 0.00 0.04 0.01 80 1014.4
20260506165033 54 41 4.3 7.0 0.00 0.04 0.01 80 1014.3
20260506164533 54 311 2.6 7.0 0.00 0.04 0.01 80 1014.4
20260506164031 54 309 2.6 7.8 0.00 0.04 0.01 80 1014.3
20260506163533 54 24 3.5 8.7 0.00 0.04 0.01 80 1014.4
20260506163034 54 24 5.2 8.7 0.00 0.04 0.01 80 1014.3
20260506162535 54 34 4.3 7.8 0.00 0.04 0.01 81 1014.3
20260506162034 54 2 3.5 7.8 0.00 0.04 0.01 81 1014.4
20260506161536 53 7 3.5 9.6 0.00 0.04 0.01 82 1014.4
20260506161034 53 60 5.2 11.3 0.00 0.04 0.01 81 1014.5
20260506160534 54 68 7.0 11.3 0.00 0.04 0.01 80 1014.5
20260506160037 54 12 3.5 8.7 0.00 0.04 0.01 78 1014.5
20260506155556 54 43 4.3 8.7 0.00 0.08 0.01 78 1014.5
20260506155055 55 350 5.2 7.8 0.00 0.08 0.01 78 1014.5
20260506154534 55 26 3.5 7.0 0.00 0.08 0.01 79 1014.7
20260506154034 54 38 2.6 7.0 0.00 0.08 0.01 80 1014.7
20260506153601 54 56 3.5 7.0 0.00 0.08 0.01 80 1014.7
20260506153040 54 309 1.7 6.1 0.00 0.08 0.01 81 1014.8
20260506152520 54 36 2.6 6.1 0.00 0.08 0.01 80 1014.8
20260506152020 54 288 3.5 6.1 0.00 0.08 0.01 80 1014.7
20260506151537 54 12 3.5 7.8 0.00 0.08 0.01 79 1014.7
20260506151038 54 340 3.5 7.8 0.00 0.08 0.01 79 1014.8
20260506150538 54 316 2.6 7.8 0.00 0.08 0.01 79 1014.8
20260506150039 54 333 2.6 6.1 0.00 0.08 0.01 80 1014.8
20260506145539 54 7 2.6 10.4 0.00 0.08 0.01 79 1014.8
20260506145031 54 298 3.5 10.4 0.00 0.08 0.01 78 1014.9
20260506144600 55 347 4.3 8.7 0.00 0.08 0.01 78 1014.8
20260506144041 55 337 4.3 13.0 0.00 0.08 0.01 79 1014.9
20260506143540 55 20 5.2 13.0 0.00 0.08 0.01 81 1015.0
20260506143040 54 348 4.3 10.4 0.00 0.08 0.01 79 1015.0
20260506142540 55 330 2.6 7.0 0.00 0.08 0.01 79 1015.0
20260506142019 55 7 2.6 10.4 0.00 0.08 0.01 76 1015.0
20260506141520 56 29 3.5 7.0 0.00 0.08 0.01 73 1015.0
20260506141052 56 350 3.5 7.0 0.00 0.08 0.01 72 1014.9
20260506140552 56 351 2.6 6.1 0.00 0.08 0.01 71 1014.9
20260506140030 56 302 2.6 4.3 0.00 0.08 0.01 72 1015.0
20260506135530 56 301 1.7 3.5 0.00 0.08 0.01 73 1015.0
20260506135032 55 299 1.7 6.1 0.00 0.08 0.01 75 1015.1
20260506134533 55 283 1.7 3.5 0.00 0.08 0.01 75 1015.1
20260506134035 55 297 1.7 3.5 0.00 0.08 0.01 74 1015.1
20260506133536 55 301 1.7 5.2 0.00 0.08 0.01 76 1015.1
20260506133059 55 323 1.7 4.3 0.00 0.08 0.01 77 1015.0
20260506132537 55 305 2.6 4.3 0.00 0.08 0.01 76 1015.1
20260506132019 55 298 2.6 4.3 0.00 0.08 0.01 78 1015.2
20260506131520 54 283 1.7 4.3 0.00 0.08 0.01 78 1015.1
20260506131050 54 307 2.6 7.0 0.00 0.08 0.01 77 1015.1
20260506130530 54 312 2.6 7.0 0.00 0.08 0.01 77 1015.1
20260506130030 54 308 2.6 6.1 0.00 0.08 0.01 78 1015.1
20260506125531 54 292 3.5 6.1 0.00 0.28 0.01 77 1015.1
20260506125052 54 349 2.6 6.1 0.00 0.28 0.01 76 1015.0
20260506124530 54 337 3.5 7.0 0.00 0.28 0.01 76 1015.0
20260506124027 55 311 3.5 7.8 0.00 0.28 0.01 76 1015.0
20260506123529 55 12 3.5 9.6 0.00 0.28 0.01 75 1015.0
20260506123030 55 315 4.3 9.6 0.00 0.28 0.01 73 1014.9
20260506122531 56 304 4.3 8.7 0.00 0.28 0.01 72 1014.9
20260506122031 56 284 2.6 5.2 0.00 0.28 0.01 71 1014.9
20260506121532 56 293 2.6 6.1 0.00 0.28 0.01 70 1014.9
20260506121032 56 281 2.6 4.3 0.00 0.28 0.01 73 1014.8
20260506120533 55 296 1.7 4.3 0.00 0.28 0.01 73 1014.8
20260506120121 55 304 1.7 5.2 0.00 0.28 0.01 73 1014.9
20260506115557 55 297 2.6 5.2 0.00 0.39 0.01 73 1014.9
20260506115038 55 303 1.7 6.1 0.00 0.39 0.01 73 1014.9
20260506114520 55 289 2.6 6.1 0.00 0.39 0.01 72 1014.8
20260506114019 56 304 1.7 5.2 0.00 0.39 0.01 71 1014.9
20260506113534 56 305 2.6 5.2 0.00 0.39 0.01 71 1014.8
20260506113018 56 283 1.7 7.0 0.00 0.39 0.01 71 1014.8
20260506112519 56 284 3.5 7.0 0.00 0.39 0.01 70 1014.9
20260506112020 56 328 1.7 4.3 0.00 0.39 0.01 70 1014.9
20260506111520 56 287 1.7 6.1 0.00 0.39 0.01 70 1014.8
20260506111020 56 30 1.7 6.1 0.00 0.39 0.01 70 1014.9
20260506110558 56 44 1.7 7.0 0.00 0.39 0.01 70 1014.9
20260506110019 56 51 2.6 7.0 0.00 0.39 0.01 70 1014.9
20260506105519 56 307 0.9 6.1 0.00 0.55 0.01 71 1014.9
20260506105059 56 315 2.6 6.1 0.00 0.55 0.01 70 1014.9
20260506104521 56 257 2.6 5.2 0.00 0.55 0.01 70 1014.8
20260506104043 56 290 2.6 6.1 0.00 0.55 0.01 69 1014.8
20260506103519 56 285 2.6 8.7 0.00 0.55 0.01 69 1014.8
20260506103021 56 281 4.3 8.7 0.00 0.55 0.01 69 1014.8
20260506102520 56 309 2.6 7.0 0.00 0.55 0.01 70 1014.8
20260506102051 55 286 1.7 8.7 0.00 0.55 0.01 69 1014.8
20260506101529 55 7 5.2 8.7 0.00 0.55 0.01 69 1014.8
20260506101046 55 291 5.2 7.0 0.00 0.55 0.01 70 1014.9
20260506100529 55 291 4.3 8.7 0.00 0.55 0.01 70 1014.9
20260506100030 55 291 5.2 8.7 0.00 0.55 0.01 69 1014.9
20260506095532 55 307 3.5 7.0 0.00 0.55 0.01 68 1014.9
20260506095033 56 320 2.6 7.0 0.00 0.55 0.01 69 1014.8
20260506094556 56 309 3.5 7.8 0.00 0.55 0.01 68 1014.8
20260506094036 56 305 5.2 7.8 0.00 0.55 0.01 70 1014.9
20260506093537 56 300 2.6 6.1 0.00 0.55 0.01 72 1014.9
20260506093058 56 296 1.7 3.5 0.00 0.55 0.01 75 1014.9
20260506092538 55 274 1.7 4.3 0.00 0.55 0.01 75 1014.9
20260506092019 55 286 2.6 4.3 0.00 0.55 0.01 75 1014.9
20260506091521 55 272 2.6 4.3 0.00 0.55 0.01 76 1014.8
20260506091024 54 280 0.9 5.2 0.00 0.55 0.01 79 1014.9
20260506090518 54 311 2.6 5.2 0.00 0.55 0.01 77 1014.8
20260506090019 54 317 2.6 6.1 0.00 0.55 0.01 78 1014.9
20260506085521 54 317 0.9 4.3 0.00 0.55 0.01 83 1014.9
20260506085023 53 133 1.7 3.5 0.00 0.55 0.01 83 1014.9
20260506084525 52 21 1.7 2.6 0.00 0.55 0.01 84 1014.9
20260506084025 51 20 0.9 2.6 0.00 0.55 0.01 85 1014.9
20260506083525 51 20 0.9 2.6 0.00 0.55 0.01 86 1014.9
20260506083032 51 16 0.9 2.6 0.00 0.55 0.01 86 1014.9
20260506082551 50 12 0.9 2.6 0.00 0.55 0.01 86 1014.9
20260506082031 50 12 1.7 2.6 0.00 0.55 0.01 87 1014.9
20260506081532 50 24 1.7 2.6 0.00 0.55 0.01 88 1014.9
20260506081032 50 295 0.9 1.7 0.00 0.55 0.01 89 1014.9
20260506080534 49 295 0.0 1.7 0.00 0.55 0.01 89 1014.9
20260506073036 47 65 0.9 1.7 0.04 0.55 0.01 93 1014.8
20260506072537 47 65 0.9 1.7 0.04 0.55 0.01 93 1014.8
20260506072037 46 65 0.9 1.7 0.04 0.55 0.01 94 1014.8
20260506071559 46 65 0.9 1.7 0.04 0.55 0.01 94 1014.7
20260506071019 46 65 0.9 2.6 0.04 0.55 0.01 94 1014.8
20260506070521 46 70 0.9 2.6 0.04 0.55 0.01 94 1014.7